RUZAEVKA 390 (RS44S)

Last updated on Mon Nov 03 2025 00:03:22 GMT+0000 (Coordinated Universal Time)

1 61766U 24199AH 25306.53290703 .00067935 00000+0 10551-2 0 9999 2 61766 97.3244 178.0509 0008373 23.9844 336.1798 15.53700212 99560
UTC large
Height (km)
Speed (km/s)
/
Latitude / Longitude
Inclination (degrees)
Orbital Period (minutes)
Azimuth
Elevation
Range (km)
Doppler Factor

Next 0 passes for location: London (51.5072 / 0.1276)

Sorry there are no passes over London.